Regional Weather Roundup
Issued by NWS

Home | Current Version | Previous Version | Graphics & Text | Print | Product List | Glossary On
Versions: 1 2 3 4 5 6 7 8 9 10 11 12 13 14 15 16 17 18 19 20 21 22 23 24 25 26 27
000
ASUS45 KSLC 061610
RWRUT

UTAH REGIONAL WEATHER ROUNDUP
NATIONAL WEATHER SERVICE SALT LAKE CITY UT
1000 AM MDT FRI MAY 06 2016

UTZ001>011-023>025-061700-

NORTHERN UTAH

CITY           SKY/WX    TMP DP  RH WIND       PRES   REMARKS
BRIGHAM CITY   CLOUDY    57  47  70 N7G15     29.88F
HILL AFB       PTSUNNY   55  46  69 E24G33    29.84F
LOGAN          CLOUDY    53  50  89 W8        29.91S
OGDEN          CLOUDY    59  44  57 NE20G26   29.83F
PROVO AIRPORT  PTSUNNY   66  43  42 NW12      29.82S
SALT LAKE CITY CLOUDY    67  42  40 E17G28    29.82S
VERNAL         CLOUDY    57  48  72 N15       29.97F
WENDOVER       CLOUDY    63  39  42 N21G26    29.78S
HEBER CITY     DRIZZLE   54  45  71 N6        29.92F

$$

UTZ012>022-026-027-061700-

SOUTHERN/CENTRAL UTAH

CITY           SKY/WX    TMP DP  RH WIND       PRES   REMARKS
BLANDING       MOSUNNY   63  29  27 S7        30.03F
BRYCE CANYON   CLOUDY    51  18  27 SE14      29.95F
CEDAR CITY     PTSUNNY   57  19  22 S20       29.85S
DELTA          CLOUDY    64  28  25 S3        29.81F
HANKSVILLE     CLOUDY    70  28  21 W3        29.85F
MILFORD        PTSUNNY   63  27  25 SW16      29.81S
MOAB/CYNLANDS  MOSUNNY   76  24  14 SW12      29.83S
PRICE          PTSUNNY   66  42  41 E9        29.89F
ST GEORGE      CLOUDY    70  23  17 E6        29.80S

$$

REGIONAL REPORTS     COLORADO/ARIZONA

CITY           SKY/WX    TMP DP  RH WIND       PRES   REMARKS
CRAIG, CO      CLOUDY    57  39  51 W15G22    30.07R
GRAND JUNCTION MOSUNNY   72  38  29 SE9       29.88F
RIFLE          CLOUDY    63  39  41 E6        29.99F
MONTROSE       CLOUDY    67  36  31 E22G29    29.96F
CORTEZ         SUNNY     68  29  23 W8        29.96F
PAGE, AZ       MOSUNNY   68  23  18 S26G33    29.82F
GRAND CANYON   SUNNY     55  23  28 S20G28    29.93F
KINGMAN        CLOUDY    59  39  47 W9        29.83R
FLAGSTAFF      SUNNY     50  27  40 S12G26    29.95S

$$

REGIONAL REPORTS    NEVADA/IDAHO/WYOMING

CITY           SKY/WX    TMP DP  RH WIND       PRES   REMARKS
LAS VEGAS, NV  PTSUNNY   60  40  47 VRB3      29.75R
ELY            PTSUNNY   52  31  44 CALM      29.85S
ELKO           MOSUNNY   59  43  55 E7        29.83F
POCATELLO, ID  CLOUDY    61  44  53 N9        29.89R
BURLEY         CLOUDY    55  48  77 E3        29.87R
EVANSTON, WY   CLOUDY    45  42  89 N7        30.02F FOG
ROCK SPRINGS   CLOUDY    56  38  50 SE6       30.03F
KEMMERER         N/A     52  37  58 E6        30.06R

$$




USA.gov is the U.S. government's official web portal to all federal, state and local government web resources and services.